Location: Spring Creek
(38.2870°N, 100.2160°W)
Time: 11:45:49
(UTC+00:00)

Cosmos 2369 Rocket - Pass Details

Date: 08 May 2021
Orbit: 827 x 854 km, 71.0° (Epoch: 22 June)

Event Time Altitude Azimuth Distance (km) Brightness Sun altitude
Exits shadow 06:05:59 25° 51° (NE) 1,642 3.9 -34.1°
Drops below altitude 10° 06:08:27 10° 37° (NE) 2,452 5.1 -34.1°
Sets 06:11:00 0° 30° (NNE) 3,394 6.0 -34.2°
